Regional Weather Roundup
Issued by NWS Charleston, SC

Current Version | Previous Version | Graphics & Text | Print | Product List | Glossary On
Versions: 1 2 3 4 5 6 7 8 9 10 11 12 13 14 15 16 17 18 19 20 21 22 23 24 25 26 27 28 29 30 31 32 33 34 35 36 37 38 39 40 41 42 43 44 45 46 47 48 49 50
000 ASUS42 KCHS 210625 RWRCHS REGIONAL WEATHER ROUNDUP NATIONAL WEATHER SERVICE CHARLESTON SC 100 AM EST SUN DEC 21 2014 NOTE: "FAIR" INDICATES FEW OR NO CLOUDS BELOW 12,000 FEET WITH NO SIGNIFICANT WEATHER AND/OR OBSTRUCTIONS TO VISIBILITY. NOT ALL STATIONS ARE QUALITY CONTROLLED BY THE NATIONAL WEATHER SERVICE. USE DATA WITH CAUTION...ESPECIALLY DEWPOINT OBSERVATIONS. SCZ027-030-031-034>040-042>050-210700- ...SOUTHEAST SOUTH CAROLINA... CITY SKY/WX TMP DP RH WIND PRES REMARKS N CHARLESTON CLOUDY 47 44 90 NE6 30.21F 6HR MIN TEMP: 47; 6HR MAX TEMP: 50; WATERFRONT PRK NOT AVBL MOUNT PLEASANT CLOUDY 46 46 100 CALM 30.20S FOG PINOPOLIS N/A 46 45 93 NE6 30.13F MONCKS CORNER FAIR 46 43 87 NE5 30.21F SUMMERVILLE CLOUDY 45 45 100 N3 30.22F BEAUFORT MCAS CLOUDY 50 47 89 NE9 30.18F 6HR MIN TEMP: 50; 6HR MAX TEMP: 54; 6HR PCP: TRACE; BEAUFORT ARPT CLOUDY 50 50 100 NE10 30.17F HILTON HEAD IS CLOUDY 52 48 87 N8 30.19S WALTERBORO CLOUDY 46 N/A N/A NE3 30.20F ALLENDALE CLOUDY 46 46 100 NE3 30.20F FOG ...SOUTHERN MIDLANDS AND PEE DEE... CITY SKY/WX TMP DP RH WIND PRES REMARKS GEORGETOWN NOT AVBL KINGSTREE NOT AVBL ORANGEBURG CLOUDY 45 41 86 NE5 30.22F 6HR MIN TEMP: 45; 6HR MAX TEMP: 47; BARNWELL N/A 46 45 93 NE6 30.21F AIKEN CLOUDY 45 45 100 N3 30.25S MANNING NOT AVBL COLUMBIA CLOUDY 46 39 76 NE3 30.23S 6HR MIN TEMP: 46; 6HR MAX TEMP: 49; SUMTER CLOUDY 41 39 93 NE7 30.23S 6HR MIN TEMP: 41; 6HR MAX TEMP: 45; FLORENCE MOCLDY 38 36 92 NE5 30.25F FOG WCI 34 6HR MIN TEMP: 37; 6HR MAX TEMP: 44; MYRTLE BEACH CLOUDY 43 37 81 N8 30.24R N MYRTLE BEACH CLOUDY 41 38 89 N7 30.22F 6HR MIN TEMP: 41; 6HR MAX TEMP: 45; $$ GAZ063-065-086>088-099>101-113>116-118-119-134>141-150-210700- ...SOUTHEAST GEORGIA... CITY SKY/WX TMP DP RH WIND PRES REMARKS SAVANNAH ARPT CLOUDY 51 48 89 NE8 30.18F 6HR MIN TEMP: 51; 6HR MAX TEMP: 54; 6HR PCP: TRACE; HUNTER AAF CLOUDY 52 51 97 N8 30.15S 6HR MIN TEMP: 52; 6HR MAX TEMP: 55; 6HR PCP: 0.01; FORT STEWART NOT AVBL STATESBORO LGT RAIN 49 49 100 CALM 30.18F SYLVANIA CLOUDY 49 49 100 NE6 30.20S FOG CLAXTON CLOUDY 52 50 93 E9 30.17F ...CSRA...CENTRAL AND FAR SOUTHEAST GEORGIA... CITY SKY/WX TMP DP RH WIND PRES REMARKS THOMSON CLOUDY 49 49 100 CALM 30.25F VSB 1 AUGUSTA-BUSH CLOUDY 47 45 93 NE5 30.22F FOG 6HR MIN TEMP: 47; 6HR MAX TEMP: 50; AUGUSTA-DANIEL CLOUDY 48 46 93 NE5 30.21F SWAINSBORO CLOUDY 52 52 100 NE3 30.18F VIDALIA CLOUDY 52 52 100 NE6 30.18R EASTMAN CLOUDY 53 53 100 E7 30.20S HAZLEHURST CLOUDY 54 54 100 CALM 30.16S ALMA CLOUDY 53 50 89 E6 30.16F 6HR MIN TEMP: 52; 6HR MAX TEMP: 54; WAYCROSS CLOUDY 57 55 95 E6 30.15S JESUP CLOUDY 55 54 94 CALM 30.17S BAXLEY CLOUDY 54 52 94 E8 30.15F BRUNSWICK CLOUDY 55 52 88 NE7 30.16S SAINT SIMONS CLOUDY 55 52 89 NE14 30.15F 6HR MIN TEMP: 55; 6HR MAX TEMP: 57; $$ SCZ027-028-034-036>038-045-046-048>050-GAZ119-141-210700- ...LAKE AND SUPPLEMENTAL COASTAL OBSERVATIONS... STATION/POSITION TIME TEMP WIND PRES WAVE SWELL AIR SEA DIR/SP/G HT/PER HT/PER/DIR (UTC) (F) (DEG/KT/KT) (MB) (FT/S) (FT/S/D) UPR LAKE MARION NOT AVBL WINYAH BAY 0600 44 350/ 4 1023.0R LAKE MURRAY 0500 45 40/ 2/ 4 1023.4S ACE BASIN NERRS 0600 48 20/ 3 1022.0S FORT PULASKI 0600 51 56 10/ 8/ 12 1021.9F SAPELO ISLAND 0600 54 30/ 9 1021.0S $$ ANZ835-935-AMZ111-154-330-350-352-354-370-450-454-472-210700- ...C-MAN AND BUOY OBSERVATIONS... STATION/POSITION TIME TEMP WIND PRES WAVE SWELL AIR SEA DIR/SP/G HT/PER HT/PER/DIR (UTC) (F) (DEG/KT/KT) (MB) (FT/S) (FT/S/D) BUOY 41004 0600 61 69 30/ 19/ 25 1020.3F 6/ 6 2/11 BUOY 41008 0600 56 59 30/ 19/ 21 1020.5S 5/ 5 2/310/11 FOLLY BEACH CMAN 0600 48 360/ 12/ 14 1022.7F CAPERS NEARSHORE 0500 49 40/ 17/ 19 N/A FRIPP NEARSHORE NOT AVBL STATION/POSITION TIME TEMP WIND PRES WAVE SWELL AIR SEA DIR/SP/G HT/PER HT/PER/DIR (UTC) (F) (DEG/KT/KT) (MB) (FT/S) (FT/S/D) 5E ST. MARYS GA 0600 61 N/A 5/ 5 FRYING PAN BUOY 0600 57 66 30/ 17/ 21 1022.3F 5/ 6 2/ 80/ 8 BUOY 41025 0600 49 1023.9F 3/ 4 CAPE LOOKOUT NC 0600 44 10/ 12/ 15 1023.7F BUOY 41002 0500 65 71 100/ 17/ 21 1020.0F 6/ 6 2/ 80/10 BUOY 41010 0600 74 76 150/ 6/ 8 1019.3F 2/11 2/ 90/11 ST AUGUSTINE FL 0600 61 350/ 15/ 18 1020.0F $$

USA.gov is the U.S. government's official web portal to all federal, state and local government web resources and services.